Location: *
(40.7873°S, 98.7174°E)
Time: 03:24:41
(UTC+00:00)

FENGYUN 1C DEB - Visible Passes

Search period start: 28 January 2023 00:00
Search period end: 07 February 2023 00:00
Orbit: 774 x 945 km, 98.7° (Epoch: 26 January)

Date Brightness Start Highest point End Pass type
(mag) Time Alt. Az. Time Alt. Az. Time Alt. Az.
28 Jan ? 14:22:54 10° SSW 14:27:01 22° WSW 14:31:15 10° WNW visible
29 Jan ? 14:13:27 10° S 14:17:56 26° WSW 14:22:33 10° WNW visible
30 Jan ? 14:04:03 10° S 14:08:51 31° WSW 14:13:47 10° NW visible
31 Jan ? 13:54:42 10° S 13:59:45 37° WSW 14:04:57 10° NW visible
01 Feb ? 13:45:23 10° S 13:50:37 44° WSW 13:56:03 10° NW visible
02 Feb ? 13:36:04 10° S 13:41:30 53° WSW 13:47:05 10° NW visible
03 Feb ? 13:26:48 10° S 13:32:21 64° WSW 13:38:04 10° NNW visible
04 Feb ? 13:17:34 10° S 13:23:12 76° WSW 13:29:00 10° NNW visible
04 Feb ? 15:01:30 10° SW 15:03:11 11° WSW 15:04:54 10° WSW visible
05 Feb ? 13:08:20 10° SSE 13:14:01 89° WSW 13:19:54 10° NNW visible
05 Feb ? 14:51:26 10° SSW 14:54:09 14° WSW 14:56:54 10° W visible
06 Feb ? 12:59:08 10° SSE 13:04:51 77° ENE 13:10:43 10° N visible
06 Feb ? 14:41:41 10° SSW 14:45:06 17° WSW 14:48:33 10° W visible
